EW9087 Weather Reports


time (UTC)temp
C
wind
direction
speed
KPH
gust
KPH
rain 1hr
cm
rain 24hr
cm
rain mn
cm
humidity
%
barometer
mb
20260507093003 4 265 6.4 11.3 0.00 0.00 0.00 76 985.0
20260507091502 5 269 4.8 12.9 0.00 0.00 0.00 73 985.0
20260507090006 5 273 6.4 11.3 0.00 0.00 0.00 73 985.0
20260507084600 5 271 6.4 11.3 0.00 0.00 0.00 73 985.0
20260507083059 4 265 4.8 11.3 0.00 0.00 0.00 77 984.9
20260507081603 4 259 4.8 9.7 0.00 0.00 0.00 76 984.9
20260507080053 5 260 4.8 9.7 0.00 0.00 0.00 73 985.1
20260507074601 6 281 3.2 11.3 0.00 0.00 0.00 68 985.0
20260507073046 6 286 6.4 16.1 0.00 0.00 0.00 65 985.0
20260507071544 6 271 4.8 17.7 0.00 0.00 0.00 65 985.0
20260507070043 6 271 6.4 16.1 0.00 0.00 0.00 67 985.0
20260507064541 6 268 4.8 12.9 0.00 0.00 0.00 69 985.2
20260507063039 6 276 3.2 9.7 0.00 0.00 0.00 70 985.2
20260507061537 7 277 4.8 12.9 0.00 0.00 0.00 68 985.2
20260507060040 7 281 6.4 11.3 0.00 0.00 0.00 67 985.2
20260507054538 7 282 4.8 12.9 0.00 0.00 0.00 67 985.3
20260507053035 7 275 6.4 11.3 0.00 0.00 0.00 66 985.3
20260507051532 7 265 3.2 12.9 0.00 0.00 0.00 66 985.3
20260507050031 7 279 6.4 12.9 0.00 0.00 0.00 67 985.2
20260507044529 7 262 3.2 9.7 0.00 0.00 0.00 69 985.2
20260507043027 7 258 4.8 9.7 0.00 0.00 0.00 70 985.1
20260507041524 7 269 4.8 11.3 0.00 0.00 0.00 67 985.0
20260507040021 8 276 4.8 9.7 0.00 0.00 0.00 67 985.1
20260507034520 7 263 3.2 11.3 0.00 0.00 0.00 71 985.0
20260507033022 7 258 1.6 4.8 0.00 0.00 0.00 71 984.9
20260507031518 8 258 4.8 9.7 0.00 0.00 0.00 69 985.0
20260507030018 8 256 3.2 4.8 0.00 0.00 0.00 70 984.8
20260507024519 8 256 1.6 4.8 0.00 0.00 0.00 68 984.8
20260507023016 9 256 1.6 6.4 0.00 0.00 0.00 65 984.8
20260507021518 10 256 1.6 6.4 0.00 0.00 0.00 64 984.7
20260507020015 10 255 3.2 9.7 0.00 0.00 0.00 62 984.7
20260507014519 10 256 4.8 8.0 0.00 0.00 0.00 62 984.6
20260507013013 10 252 3.2 6.4 0.00 0.00 0.00 62 984.5
20260507011512 11 360 3.2 4.8 0.00 0.00 0.00 61 984.4
20260507010012 11 360 3.2 8.0 0.00 0.00 0.00 62 984.3
20260507004515 11 360 4.8 12.9 0.00 0.03 0.00 55 984.2
20260507003010 12 250 3.2 11.3 0.00 0.03 0.00 53 983.8
20260507001512 12 277 6.4 12.9 0.00 0.03 0.00 52 983.9
20260507000010 12 282 8.0 14.5 0.00 0.03 0.00 50 983.8
20260506234511 12 247 6.4 17.7 0.00 0.13 0.00 50 983.9
20260506233008 12 252 9.7 16.1 0.00 0.13 0.00 52 984.0
20260506231508 12 252 12.9 17.7 0.00 0.13 0.00 49 984.1
20260506230008 13 280 8.0 16.1 0.00 0.13 0.00 46 983.8
20260506224508 13 269 11.3 19.3 0.00 0.15 0.00 47 984.1
20260506223007 12 277 4.8 16.1 0.00 0.15 0.00 47 983.9
20260506221506 13 263 11.3 20.9 0.00 0.15 0.00 48 983.8
20260506220015 13 265 11.3 17.7 0.00 0.15 0.00 47 983.8
20260506214506 13 271 11.3 20.9 0.00 0.28 0.00 46 983.7
20260506213005 13 296 6.4 14.5 0.00 0.28 0.00 47 983.7
20260506211508 13 254 8.0 22.5 0.00 0.28 0.00 46 983.7
20260506210009 13 259 6.4 24.1 0.00 0.28 0.00 51 983.8
20260506204505 13 255 14.5 24.1 0.00 0.30 0.00 46 984.0
20260506203004 13 267 8.0 14.5 0.00 0.30 0.00 47 983.8
20260506201503 13 300 11.3 25.7 0.00 0.30 0.00 48 983.8
20260506200003 13 277 9.7 20.9 0.00 0.30 0.00 45 984.1
20260506194501 13 273 9.7 16.1 0.00 0.30 0.00 46 984.1
20260506193106 13 271 6.4 20.9 0.00 0.30 0.00 45 984.1
20260506191600 13 290 9.7 19.3 0.00 0.30 0.00 49 984.3
20260506184557 13 255 11.3 19.3 0.00 0.33 0.00 48 984.4
20260506183055 13 300 8.0 17.7 0.00 0.33 0.00 48 984.4
20260506181553 12 252 8.0 17.7 0.00 0.33 0.00 49 984.5
20260506174554 12 276 3.2 9.7 0.00 0.33 0.00 49 984.4
20260506173056 12 300 4.8 16.1 0.00 0.33 0.00 55 984.3
20260506171556 12 74 3.2 12.9 0.00 0.33 0.00 49 984.3
20260506164548 12 280 3.2 8.0 0.00 0.33 0.00 53 984.4
20260506163105 12 301 8.0 14.5 0.00 0.33 0.00 53 984.3
20260506161546 12 284 6.4 14.5 0.00 0.33 0.00 49 984.4
20260506160045 12 271 9.7 16.1 0.00 0.33 0.00 49 984.3
20260506154605 12 32 3.2 14.5 0.00 0.33 0.00 50 984.2
20260506153050 12 302 3.2 16.1 0.00 0.33 0.00 48 984.6
20260506151539 11 326 3.2 12.9 0.00 0.33 0.00 49 984.3
20260506150038 12 302 3.2 9.7 0.00 0.33 0.00 49 984.1
20260506144534 11 315 4.8 14.5 0.00 0.33 0.00 48 984.0
20260506143040 11 346 3.2 11.3 0.00 0.33 0.00 52 983.8
20260506141529 10 32 4.8 16.1 0.00 0.33 0.00 52 983.8
20260506140026 11 21 1.6 14.5 0.00 0.33 0.00 54 983.7
20260506134524 11 46 3.2 9.7 0.00 0.33 0.00 55 983.7
20260506133020 10 337 1.6 14.5 0.00 0.33 0.00 58 983.4
20260506131516 10 360 1.6 12.9 0.00 0.33 0.00 61 983.3
20260506130013 9 360 0.0 9.7 0.00 0.33 0.00 61 983.1
20260506124509 8 360 3.2 9.7 0.00 0.33 0.00 65 982.8
20260506123006 8 360 3.2 9.7 0.00 0.33 0.00 67 982.7
20260506121504 8 360 1.6 8.0 0.00 0.33 0.00 70 982.7
20260506114606 7 360 0.0 3.2 0.00 0.33 0.00 81 982.3
20260506113154 6 360 0.0 1.6 0.00 0.33 0.00 85 982.1
20260506111548 6 41 0.0 4.8 0.00 0.33 0.00 88 981.8
20260506110054 6 42 1.6 6.4 0.00 0.33 0.00 90 981.5
20260506104542 6 242 0.0 0.0 0.00 0.33 0.00 90 981.3
20260506103038 7 242 0.0 1.6 0.00 0.33 0.00 90 981.2
20260506101538 7 240 0.0 4.8 0.00 0.33 0.00 91 981.1
20260506100039 7 234 1.6 3.2 0.00 0.33 0.00 90 980.6
20260506094548 7 234 1.6 6.4 0.00 0.33 0.00 90 980.7